Home   Weather   Fort Lauderdale   Past weeks

Flag for USA Past Weather in Fort Lauderdale, Florida, USA — Yesterday and Last 2 Weeks

Now
82 °F

Partly sunny.


Feels Like: 88 °F
Forecast: 77 / 85 °F
Wind: 5 mph from South

Location: Fort Lauderdale / Hollywood International Airport

Current Time: Sep 26, 2016 at 3:05:10 PM

Latest Report: Sep 26, 2016 at 1:53 PM


Visibility: 10 mi

Pressure: 29.97 "Hg

Humidity: 77%

Dew Point: 74 °F

Location of Fort LauderdaleLocation

Past Weather in Fort Lauderdale — Graph

°F

Fort Lauderdale Temperature Yesterday

Maximum temperature yesterday: 85 °F (at 9:53 AM)
Minimum temperature yesterday: 75 °F (at 5:53 AM)
Average temperature yesterday: 81 °F

High & Low Weather Summary for the Past Weeks

 TemperatureHumidityPressure
High91 °F (Sep 18, 1:53 PM)91% (Sep 24, 5:53 PM)30.07 "Hg (Sep 24, 5:53 PM)
Low75 °F (Sep 25, 5:53 AM)47% (Sep 18, 2:53 PM)29.90 "Hg (Sep 12, 6:53 PM)
Average83 °F77%29.98 "Hg
* Reported Sep 11 1:53 PM — Sep 26 1:53 PM, Fort Lauderdale, Weather by CustomWeather, © 2016

Note: Actual official high and low records may vary slightly from our data, if they occured in-between our weather recording intervals... More about our weather records

Advertising

Fort Lauderdale Weather History for the Previous 24 Hours

Scroll right to see more
 ConditionsComfort  
Time TempWeatherWind HumidityBarometerVisibility
1:53 PM
Mon, Sep 26
82 °FPartly sunny.5 mph77%29.97 "Hg10 mi
1:03 PM84 °FThunderstorms. Broken clouds.8 mph72%29.98 "Hg10 mi
12:53 PM84 °FThundershowers. Broken clouds.10 mph70%29.98 "Hg10 mi
11:53 AM87 °FBroken clouds.5 mph63%30.00 "Hg10 mi
10:53 AM85 °FPartly sunny.3 mph68%30.01 "Hg10 mi
9:53 AM82 °FMore clouds than sun.3 mph74%30.00 "Hg10 mi
8:53 AM79 °FCloudy.7 mph79%29.99 "Hg10 mi
8:02 AM79 °FThundershowers. Broken clouds.3 mph88%29.98 "Hg10 mi
7:53 AM79 °FBroken clouds.5 mph88%29.97 "Hg10 mi
6:53 AM80 °FPartly cloudy.No wind85%29.96 "Hg10 mi
5:53 AM80 °FMostly cloudy.No wind85%29.94 "Hg10 mi
4:53 AM80 °FPassing clouds.5 mph85%29.93 "Hg10 mi
3:53 AM80 °FPassing clouds.3 mph79%29.93 "Hg10 mi
2:53 AM80 °FPartly cloudy.6 mph81%29.96 "Hg10 mi
1:53 AM81 °FPassing clouds.6 mph77%29.96 "Hg10 mi
12:53 AM81 °FPassing clouds.6 mph77%29.98 "Hg10 mi
11:53 PM
Sun, Sep 25
82 °FPassing clouds.10 mph74%29.98 "Hg10 mi
10:53 PM81 °FPassing clouds.7 mph77%30.00 "Hg10 mi
9:53 PM82 °FPassing clouds.9 mph74%30.01 "Hg10 mi
8:53 PM82 °FPartly cloudy.10 mph74%29.98 "Hg10 mi
7:53 PM82 °FPartly cloudy.12 mph77%29.98 "Hg10 mi
6:53 PM83 °FBroken clouds.12 mph72%29.97 "Hg10 mi
5:53 PM83 °FBroken clouds.10 mph72%29.96 "Hg10 mi
4:53 PM84 °FBroken clouds.9 mph74%29.95 "Hg10 mi
3:53 PM85 °FPartly sunny.10 mph70%29.96 "Hg10 mi
Weather by CustomWeather, © 2016

See weather overviewHow to use our weather pages